Regional Weather Roundup
Issued by NWS

Home | Current Version | Previous Version | Text Only | Print | Product List | Glossary Off
Versions: 1 2 3 4 5 6 7 8 9 10 11 12 13 14 15 16 17 18 19 20 21 22 23 24 25 26 27 28 29 30 31 32 33 34 35 36 37 38 39 40 41 42 43 44 45 46 47 48 49 50

000
ASUS43 KIND 280759
RWRIN

WEATHER ROUNDUP FOR INDIANA
NATIONAL WEATHER SERVICE INDIANAPOLIS IN
400 AM EDT WED JUN 28 2017

NOTE: "FAIR" INDICATES FEW OR NO CLOUDS BELOW 12,000 FEET WITH NO
SIGNIFICANT WEATHER AND/OR OBSTRUCTIONS TO VISIBILITY.

* - STATION DOES NOT REPORT WEATHER SUCH AS PRECIPITATION OR FOG.

+ - STATION NOT QUALITY CONTROLLED BY THE NATIONAL WEATHER SERVICE.
    USE DATA WITH CAUTION...ESPECIALLY DEWPOINT AND RELATIVE
    HUMIDITY OBSERVATIONS.

INZ001>003-010>013-019-020-280900-
NORTHWEST INDIANA

CITY           SKY/WX    TMP DP  RH WIND       PRES   REMARKS
KNOX *+        CLEAR     55  39  54 S7        30.07F
MONTICELLO +   CLEAR     61  49  65 S3        30.08F

$$

LMZ046-743>745-280900-
SOUTHERN LAKE MICHIGAN

STATION/POSITION TIME  TEMP    WIND        PRES    WAVE
                       AIR SEA DIR/SP/G            HT
                 (UTC) (F)     (DEG/KT/KT) (MB)    (FT)
BURNS HARBOR     0740   63     180/  9/ 15 1017.9F
MICHIGAN CITY    0730   62     160/ 12/ 15   N/A
5NW MICH CITY    0750   63 66  180/ 12/ 16   N/A     1

$$

INZ004-005-014>016-021>024-280900-
NORTH CENTRAL INDIANA

CITY           SKY/WX    TMP DP  RH WIND       PRES   REMARKS
GOSHEN         CLEAR     51  45  79 S5        30.09S
PERU/GRISSOM   CLEAR     55  49  80 S6        30.09S
SOUTH BEND     CLEAR     56  47  71 SW3       30.09S

$$

INZ006>009-017-018-025>027-280900-
NORTHEAST INDIANA

CITY           SKY/WX    TMP DP  RH WIND       PRES   REMARKS
ANGOLA *+      CLEAR     50  39  66 CALM      30.10S
FORT WAYNE     CLEAR     56  49  77 SW3       30.12S

$$

INZ028-029-035-036-043>045-051>053-280900-
WEST CENTRAL INDIANA

CITY           SKY/WX    TMP DP  RH WIND       PRES   REMARKS
LAFAYETTE      CLEAR     54  50  86 E3        30.09S
TERRE HAUTE    CLEAR     56  49  77 SE3       30.09F

$$

INZ030>032-037>040-046>048-054>057-064-065-280900-
CENTRAL INDIANA

CITY           SKY/WX    TMP DP  RH WIND       PRES   REMARKS
CP ATTERBURY + CLEAR     48  46  93 CALM      30.13S
GREENWOOD *+   PTCLDY    58  49  73 S5        30.13R
INDIANAPOLIS   CLEAR     57  49  74 SE7       30.10S
-EAGLE CREEK   CLEAR     54  51  90 E3        30.10S
KOKOMO +       CLEAR     56  50  80 CALM      30.11S
MT COMFORT *+  CLEAR     55  50  82 SE5       30.12S
SHELBYVILLE    CLEAR     53  48  83 CALM      30.12R

$$

INZ033-034-041-042-049-050-058-059-280900-
EAST CENTRAL INDIANA

CITY           SKY/WX    TMP DP  RH WIND       PRES   REMARKS
MUNCIE         CLEAR     58  48  69 S6        30.13R
RICHMOND +     CLEAR     52  46  82 S3        30.15S

$$

INZ060-061-067>069-081>083-085>088-280900-
SOUTHWEST INDIANA

CITY           SKY/WX    TMP DP  RH WIND       PRES   REMARKS
EVANSVILLE     CLEAR     58  55  90 CALM      30.09F
HUNTINGBURG *+ CLEAR     57  51  80 E3        30.10S

$$

INZ062-063-066-070>080-084-089>092-280900-
SOUTH CENTRAL AND SOUTHEAST INDIANA

CITY           SKY/WX    TMP DP  RH WIND       PRES   REMARKS
BLOOMINGTON    CLEAR     52  48  86 CALM      30.11S
MADISON *+     CLEAR     54  54 100 CALM      30.14F
SEYMOUR +      CLEAR     55  55 100 E3        30.11F

$$





USA.gov is the U.S. government's official web portal to all federal, state and local government web resources and services.